Location: Newark
(43.0000°N, 1.6781°W)
Time: 10:46:58
(UTC+00:00)

Explorer 7 - Pass Details

Date: 24 April 2021
Orbit: 484 x 677 km, 50.3° (Epoch: 07 May)

Event Time Altitude Azimuth Distance (km) Brightness Sun altitude
Rises 19:09:14 0° 252° (WSW) 2,588 11.2 -2.4°
Reaches altitude 10° 19:11:24 10° 256° (WSW) 1,727 10.4 -2.8°
Maximum altitude 19:15:16 56° 336° (NNW) 631 7.5 -3.5°
Drops below altitude 10° 19:19:22 10° 56° (NE) 1,836 9.2 -4.2°
Sets 19:21:43 0° 60° (ENE) 2,769 10.0 -4.6°
